Weather History for Quillayute, WA

Change the Weather History Date:

Sunday, October 20, 2013

  Actual Average Record
Temperature  
Mean Temperature 49 °F 49 °F  
Max Temperature 54 °F 57 °F 71 °F (1987)
Min Temperature 44 °F 41 °F 29 °F (1977)
Degree Days  
Heating Degree Days 16 16  
Month to date heating degree days 252 278  
Since 1 July heating degree days 543 903  
Cooling Degree Days 0 0  
Month to date cooling degree days 0 0  
Year to date cooling degree days 39 19  
Moisture  
Dew Point 45 °F    
Average Humidity 88    
Maximum Humidity 93    
Minimum Humidity 83    
Precipitation  
Precipitation 0.00 in 0.38 in 1.82 in (2003)
Month to date precipitation 2.60 5.92  
Year to date precipitation 74.01 66.46  
Sea Level Pressure  
Sea Level Pressure 30.16 in    
Wind  
Wind Speed 2 mph (West)    
Max Wind Speed 7 mph    
Max Gust Speed 10 mph    
Visibility 2 miles    
Events Fog    
T = Trace of Precipitation, MM = Missing Value Source: NWS Daily Summary

Daily Weather History Graph

Daily Weather History Graph

Search for Another Location

Airport:

Trip Planner

Search our weather history database for the weather conditions in past years. The results will help you decide how hot, cold, wet, or windy it might be!

Date:

Astronomy

Oct. 20, 2013 Rise Set
Actual Time 7:45 AM PDT 6:19 PM PDT
Civil Twilight 7:13 AM PDT 6:51 PM PDT
Nautical Twilight 6:37 AM PDT 7:27 PM PDT
Astronomical Twilight 6:01 AM PDT 8:03 PM PDT
Moon 7:23 PM PDT (10/20) 9:37 AM PDT (10/20)
Length of Visible Light 11h 37m
Length of Day
10h 34m
Waning Gibbous, 97% of the Moon is Illuminated
Oct 20
Waning Gibbous
Oct 26
Last Quarter
Nov 3
New
Nov 9
First Quarter
Nov 17
Full

Hourly Weather History & Observations

Time (PDT) Temp. Dew Point Humidity Pressure Visibility Wind Dir Wind Speed Gust Speed Precip Events Conditions
12:53 AM 48.0 °F 45.0 °F 89% 30.19 in 0.2 mi Calm Calm - N/A Fog Fog
1:53 AM 48.0 °F 45.0 °F 89% 30.19 in 0.2 mi ENE 3.5 mph - N/A Fog Fog
2:53 AM 48.0 °F 45.0 °F 89% 30.18 in 0.2 mi Calm Calm - N/A Fog Fog
3:53 AM 46.9 °F 44.1 °F 90% 30.17 in 0.2 mi Calm Calm - N/A Fog Fog
4:53 AM 46.0 °F 43.0 °F 89% 30.16 in 0.2 mi Calm Calm - N/A Fog Fog
5:53 AM 45.0 °F 42.1 °F 90% 30.17 in 0.2 mi Calm Calm - N/A Fog Fog
6:53 AM 45.0 °F 42.1 °F 90% 30.17 in 0.2 mi Calm Calm - N/A Fog Fog
7:53 AM 45.0 °F 42.1 °F 90% 30.18 in 0.2 mi Calm Calm - N/A Fog Fog
8:53 AM 45.0 °F 42.1 °F 90% 30.18 in 0.2 mi Calm Calm - N/A Fog Fog
9:53 AM 46.0 °F 43.0 °F 89% 30.19 in 0.2 mi Calm Calm - N/A Fog Fog
10:53 AM 46.9 °F 44.1 °F 90% 30.19 in 0.2 mi Calm Calm - N/A Fog Fog
11:03 AM 46.4 °F 44.6 °F 93% 30.19 in 0.8 mi Calm Calm - N/A   Mist
11:25 AM 48.2 °F 44.6 °F 87% 30.18 in 1.5 mi Calm Calm - N/A   Overcast
11:31 AM 48.2 °F 44.6 °F 87% 30.18 in 3.0 mi Calm Calm - N/A   Overcast
11:53 AM 48.9 °F 46.0 °F 90% 30.18 in 3.0 mi Calm Calm - N/A   Overcast
12:51 PM 53.6 °F 48.2 °F 82% 30.18 in 7.0 mi SW 4.6 mph - N/A   Overcast
12:53 PM 54.0 °F 48.0 °F 80% 30.18 in 7.0 mi SW 5.8 mph - N/A   Overcast
1:30 PM 53.6 °F 48.2 °F 82% 30.16 in 6.0 mi SW 5.8 mph - N/A   Haze
1:53 PM 52.0 °F 46.9 °F 83% 30.16 in 4.0 mi SW 5.8 mph - N/A   Haze
2:53 PM 52.0 °F 46.9 °F 83% 30.15 in 6.0 mi WSW 5.8 mph - N/A   Haze
3:53 PM 51.1 °F 46.9 °F 86% 30.15 in 5.0 mi WSW 5.8 mph - N/A   Overcast
4:53 PM 51.1 °F 46.0 °F 83% 30.14 in 5.0 mi SW 4.6 mph - N/A   Haze
5:53 PM 50.0 °F 46.9 °F 89% 30.14 in 2.5 mi Calm Calm - N/A   Overcast
6:03 PM 50.0 °F 46.4 °F 87% 30.13 in 1.2 mi Calm Calm - N/A   Overcast
6:13 PM 50.0 °F 46.4 °F 87% 30.13 in 2.0 mi Calm Calm - N/A   Overcast
6:20 PM 50.0 °F 46.4 °F 87% 30.13 in 1.0 mi NNW 3.5 mph - N/A   Overcast
6:28 PM 48.2 °F 46.4 °F 93% 30.13 in 0.2 mi West 3.5 mph - N/A Fog Fog
6:44 PM 48.2 °F 46.4 °F 93% 30.13 in 0.5 mi Calm Calm - N/A Fog Fog
6:53 PM 48.9 °F 46.0 °F 90% 30.13 in 0.2 mi Calm Calm - N/A Fog Fog
7:15 PM 48.2 °F 46.4 °F 93% 30.12 in 0.5 mi Calm Calm - N/A Fog Fog
7:34 PM 50.0 °F 46.4 °F 87% 30.12 in 0.2 mi Calm Calm - N/A Fog Fog
7:53 PM 48.9 °F 46.0 °F 90% 30.13 in 0.5 mi NNW 3.5 mph - N/A Fog Fog
8:03 PM 48.2 °F 46.4 °F 93% 30.13 in 0.2 mi NNW 4.6 mph - N/A Fog Fog
8:53 PM 48.9 °F 46.0 °F 90% 30.14 in 0.2 mi North 3.5 mph - N/A Fog Fog
9:53 PM 48.9 °F 46.0 °F 90% 30.14 in 0.2 mi Calm Calm - N/A Fog Fog
10:53 PM 48.0 °F 45.0 °F 89% 30.13 in 0.2 mi Calm Calm - N/A Fog Fog
11:06 PM 46.4 °F 44.6 °F 93% 30.13 in 0.2 mi Calm Calm - N/A Fog Fog
11:53 PM 46.0 °F 43.0 °F 89% 30.13 in 0.2 mi Calm Calm - N/A Fog Fog